LFBTLFBZ

Guest
Details From LFBT - Tarbes Ossun Lourdes
To LFBZ - Biarritz-Anglet-Bayonne
Flight Number -
Tags decoded
Created
Modified
Stats Distance 72 nm / 132 km
Max Altitude 0 ft / 0 m
Waypoints 3
Social Downloads 3
Likes 0
Share VATSIM

Download

Looking for another format? Having issues loading an existing format? Contact us
Advertisement - Login to hide

Notes

Requested: LFBT SEA LFBZ

Route

LFBT SEA LFBZ

ID Type Via Altitude Latitude Longitude Leg Dist Tot Dist Heading (true) Name
O LFBT APT - 0 ft / 0 m 43.17864˚ -0.00634˚ - 0 nm - Tarbes Ossun Lourdes
SEA FIX - 0 ft / 0 m 43.52417˚ -0.90972˚ 44 nm 44 nm 298° / 297° -
O LFBZ APT - 0 ft / 0 m 43.46843˚ -1.52332˚ 26 nm 71 nm 263° / 263° Biarritz-Anglet-Bayonne

Altitude Profile

Advertisement - Login to hide

LFBT

Details ICAO LFBT (LDE)
Name Tarbes Ossun Lourdes
Region France
Timezone Europe/Paris (UTC+2.0)
Stats Elevation 1,260 ft / 384 m (AMSL)
Location 43.178643° -0.006340°
Runways 1
Magnetic Variation 0.270° E

METAR

LFBT 201930Z AUTO 18005KT 9999 SCT044/// BKN050/// OVC060/// ///TCU 17/12 Q1014 BECMG SCT040

Decode

TAF

TAF LFBT 201700Z 2018/2118 VRB02KT 9999 SCT040 TEMPO 2018/2019 4000 SHRA BKN030TCU FEW035CB BECMG 2022/2024 BKN080 TEMPO 2110/2118 4000 SHRA BKN035TCU FEW040CB PROB40 TEMPO 2111/2118 4000 TSRA BKN045CB

Decode

Departure Runways

ID Width Length Bearing (true) Bearing (mag) Surface Threshold Offset Overrun Length
02 148 ft / 45 m 9,847 ft / 3,001 m 20.26° 19.99° Asphalt 2,199 ft / 670 m 0 ft / 0 m
20 148 ft / 45 m 9,847 ft / 3,001 m 200.27° 200.00° Asphalt 0 ft / 0 m 0 ft / 0 m

LFBZ

Details ICAO LFBZ (BIQ)
Name Biarritz-Anglet-Bayonne
Region France
Timezone Europe/Paris (UTC+2.0)
Stats Elevation 245 ft / 75 m (AMSL)
Location 43.468427° -1.523322°
Runways 1
Magnetic Variation 0.172° W

METAR

LFBZ 201930Z AUTO 29003KT 250V320 9999 SCT008 15/14 Q1014 BECMG 1500 BR OVC003

Decode

TAF

TAF LFBZ 201700Z 2018/2118 26008KT CAVOK BECMG 2019/2021 1500 BR OVC003 PROB40 2022/2106 0200 FG VV/// BECMG 2103/2105 10005KT BECMG 2106/2108 FEW040 BECMG 2112/2114 34008KT TEMPO 2110/2118 BKN040 PROB30 TEMPO 2112/2114 4000 TSRA BKN030CB

Decode

Destination Runways

ID Width Length Bearing (true) Bearing (mag) Surface Threshold Offset Overrun Length
09 148 ft / 45 m 7,388 ft / 2,252 m 89.12° 89.29° Asphalt 673 ft / 205 m 0 ft / 0 m
27 148 ft / 45 m 7,388 ft / 2,252 m 269.14° 269.31° Asphalt 0 ft / 0 m 0 ft / 0 m

Approach Navaids

Runway Type Ident Frequency Range Bearing (true) Bearing (mag) Slope Elevation
09 Localiser BZ 111.34 MHz 18 nm / 33 km 89.35° 89.53° - 243 ft / 74 m (AMSL)
09 Glidescope BZ 111.34 MHz 10 nm / 19 km 89.13° 89.31° 3.00° 243 ft / 74 m (AMSL)
27 Localiser BZ 111.35 MHz 18 nm / 33 km 269.04° 269.22° - 234 ft / 71 m (AMSL)
27 Glidescope BZ 111.35 MHz 10 nm / 19 km 269.13° 269.31° 3.00° 234 ft / 71 m (AMSL)
27 DME BZ 111.35 MHz 18 nm / 33 km - - - 223 ft / 68 m (AMSL)

Popular Alternatives